Home   Weather   Caguas   Past weeks

Flag for Puerto Rico Past Weather in Caguas, Puerto Rico — Yesterday and Last 2 Weeks

Now
84 °F

Scattered clouds.


Feels Like: 90 °F
Forecast: 65 / 86 °F
Wind: 15 mph from Northeast

Location: Luis Munoz Marin

Current Time: Feb 25, 2017 at 2:25:48 pm

Latest Report: Feb 25, 2017 at 1:56 pm


Visibility: 10 mi

Pressure: 29.97 "Hg

Humidity: 70%

Dew Point: 73 °F

Location of CaguasLocation

Past Weather in Caguas — Graph

°F

Caguas Temperature Yesterday

Maximum temperature yesterday: 89 °F (at 1:56 pm)
Minimum temperature yesterday: 73 °F (at 1:56 am)
Average temperature yesterday: 80 °F

High & Low Weather Summary for the Past Weeks

 TemperatureHumidityPressure
High90 °F (Feb 16, 2:56 pm)97% (Feb 24, 1:56 am)30.14 "Hg (Feb 24, 1:56 am)
Low71 °F (Feb 25, 6:56 am)41% (Feb 16, 2:56 pm)29.83 "Hg (Feb 22, 4:56 am)
Average78 °F73%29.99 "Hg
* Reported Feb 10 12:56 pm — Feb 25 12:56 pm, Caguas, Weather by CustomWeather, © 2017

Note: Actual official high and low records may vary slightly from our data, if they occured in-between our weather recording intervals... More about our weather records

Advertising

Caguas Weather History for the Previous 24 Hours

Scroll right to see more
 ConditionsComfort  
Time TempWeatherWind HumidityBarometerVisibility
12:56 pm
Sat, Feb 25
83 °FBroken clouds.13 mph68%29.99 "Hg10 mi
11:56 am81 °FBroken clouds.8 mph72%30.02 "Hg10 mi
10:56 am82 °FBroken clouds.9 mph70%30.04 "Hg10 mi
9:56 am82 °FBroken clouds.6 mph65%30.03 "Hg10 mi
8:56 am78 °FScattered clouds.No wind71%30.01 "Hg10 mi
7:56 am75 °FScattered clouds.No wind79%30.00 "Hg10 mi
6:56 am71 °FPassing clouds.3 mph90%29.98 "Hg10 mi
5:56 am72 °FPassing clouds.3 mph84%29.96 "Hg10 mi
4:56 am72 °FPassing clouds.3 mph87%29.94 "Hg10 mi
3:56 am74 °FClear.No wind82%29.93 "Hg10 mi
2:56 am75 °FPassing clouds.3 mph82%29.94 "Hg10 mi
1:56 am76 °FPassing clouds.3 mph80%29.95 "Hg10 mi
12:56 am76 °FClear.No wind80%29.96 "Hg10 mi
11:56 pm
Fri, Feb 24
77 °FClear.No wind74%29.97 "Hg10 mi
10:56 pm77 °FPassing clouds.3 mph74%29.98 "Hg10 mi
9:56 pm79 °FPassing clouds.3 mph69%29.97 "Hg10 mi
8:56 pm79 °FPassing clouds.5 mph69%29.96 "Hg10 mi
7:56 pm80 °FPassing clouds.7 mph69%29.93 "Hg10 mi
6:56 pm82 °FPassing clouds.9 mph58%29.90 "Hg10 mi
5:56 pm84 °FPassing clouds.6 mph55%29.89 "Hg10 mi
4:56 pm87 °FPassing clouds.9 mph48%29.88 "Hg10 mi
3:56 pm89 °FPassing clouds.12 mph41%29.88 "Hg10 mi
2:56 pm89 °FScattered clouds.10 mph45%29.88 "Hg10 mi
Weather by CustomWeather, © 2017

See weather overviewHow to use our weather pages